Weather History for KPAE - October, 2012

Change the Weather History Date:

Saturday, October 6, 2012

  Actual Average Record
Temperature  
Mean Temperature 56 °F -  
Max Temperature 68 °F 62 °F 75 °F (2000)
Min Temperature 45 °F 43 °F 31 °F (1974)
Degree Days  
Heating Degree Days 10    
Growing Degree Days 6 (Base 50)    
Moisture  
Dew Point 35 °F    
Average Humidity 46    
Maximum Humidity 68    
Minimum Humidity 24    
Precipitation  
Precipitation 0.00 in - - ()
Sea Level Pressure  
Sea Level Pressure 30.21 in    
Wind  
Wind Speed 2 mph (NNE)    
Max Wind Speed 7 mph    
Max Gust Speed -    
Visibility 10 miles    
Events      
Averages and records for this station are not official NWS values.
T = Trace of Precipitation, MM = Missing Value Source: NWS Daily Summary

Daily Weather History Graph

Daily Weather History Graph

Search for Another Location

Airport or City:

Trip Planner

Search our weather history database for the weather conditions in past years. The results will help you decide how hot, cold, wet, or windy it might be!

Date:

Astronomy

Oct. 06, 2012 Rise Set
Actual Time 7:16 AM PDT 6:37 PM PDT
Civil Twilight 6:45 AM PDT 7:07 PM PDT
Nautical Twilight 6:09 AM PDT 7:43 PM PDT
Astronomical Twilight 5:33 AM PDT 8:19 PM PDT
Moon 10:37 PM PDT (10/6) 1:35 PM PDT (10/6)
Length of Visible Light 12h 22m
Length of Day
11h 20m
Waning Gibbous, 64% of the Moon is Illuminated
Oct 6
Waning Gibbous
Oct 8
Last Quarter
Oct 15
New
Oct 21
First Quarter
Oct 29
Full

Hourly Weather History & Observations

Time (PDT) Temp. Dew Point Humidity Pressure Visibility Wind Dir Wind Speed Gust Speed Precip Events Conditions
12:53 AM 48.9 °F 37.0 °F 64% 30.25 in 10.0 mi Calm Calm - N/A   Clear
1:53 AM 48.0 °F 35.1 °F 61% 30.26 in 10.0 mi Calm Calm - N/A   Clear
2:53 AM 50.0 °F 35.1 °F 57% 30.25 in 10.0 mi Calm Calm - N/A   Clear
3:53 AM 48.0 °F 34.0 °F 58% 30.24 in 10.0 mi NE 3.5 mph - N/A   Clear
4:53 AM 48.9 °F 33.1 °F 54% 30.24 in 10.0 mi Calm Calm - N/A   Clear
5:53 AM 48.0 °F 33.1 °F 56% 30.24 in 10.0 mi Calm Calm - N/A   Clear
6:53 AM 48.0 °F 32.0 °F 54% 30.25 in 10.0 mi Calm Calm - N/A   Clear
7:53 AM 45.0 °F 35.1 °F 68% 30.25 in 10.0 mi Calm Calm - N/A   Clear
8:53 AM 52.0 °F 34.0 °F 50% 30.25 in 10.0 mi Calm Calm - N/A   Clear
9:53 AM 54.0 °F 37.9 °F 55% 30.27 in 10.0 mi NE 3.5 mph - N/A   Clear
10:53 AM 55.9 °F 35.1 °F 45% 30.26 in 10.0 mi North 3.5 mph - N/A   Clear
11:53 AM 63.0 °F 35.1 °F 35% 30.25 in 10.0 mi Calm Calm - N/A   Clear
12:53 PM 64.9 °F 28.9 °F 26% 30.24 in 10.0 mi WNW 5.8 mph - N/A   Clear
1:53 PM 66.0 °F 36.0 °F 33% 30.22 in 10.0 mi Variable 3.5 mph - N/A   Clear
2:53 PM 66.9 °F 28.9 °F 24% 30.19 in 10.0 mi North 4.6 mph - N/A   Clear
3:53 PM 66.9 °F 33.1 °F 28% 30.18 in 10.0 mi North 6.9 mph - N/A   Clear
4:53 PM 66.9 °F 33.1 °F 28% 30.17 in 10.0 mi North 4.6 mph - N/A   Clear
5:53 PM 66.0 °F 33.1 °F 29% 30.16 in 10.0 mi North 3.5 mph - N/A   Clear
6:53 PM 62.1 °F 32.0 °F 32% 30.15 in 10.0 mi North 3.5 mph - N/A   Clear
7:53 PM 57.0 °F 39.0 °F 51% 30.16 in 10.0 mi NE 3.5 mph - N/A   Clear
8:53 PM 57.9 °F 37.0 °F 46% 30.14 in 10.0 mi NNE 3.5 mph - N/A   Clear
9:53 PM 57.0 °F 37.0 °F 47% 30.14 in 10.0 mi Calm Calm - N/A   Clear
10:53 PM 55.0 °F 37.9 °F 53% 30.13 in 10.0 mi NNE 3.5 mph - N/A   Clear
11:53 PM 53.1 °F 39.0 °F 59% 30.13 in 10.0 mi Calm Calm - N/A   Clear